Location: Camerons Lookout
(40.9833°S, 175.9333°E)
Time: 01:49:33
(UTC+00:00)

Cosmos 1869 - Pass Details

Date: 14 January 2026
Orbit: 450 x 475 km, 82.5° (Epoch: 6 February)

Event Time Altitude Azimuth Distance (km) Brightness Sun altitude
Exits shadow 10:45:52 31° 270° (W) 839 4.4 -23.6°
Maximum altitude 10:46:13 32° 257° (WSW) 825 4.5 -23.6°
Drops below altitude 10° 10:49:25 10° 193° (SSW) 1,620 6.7 -23.9°
Sets 10:51:40 0° 182° (S) 2,503 7.8 -24.1°
